Showing default

GOOD ANCESTOR KILAKILA, 64528

Orbit data source: Space-Track

GOOD ANCESTOR KILAKILA, 64528 is a Solomon Islander payload satellite in SSO that was launched on Mon, 23 Jun 2025 UTC via an FALCON 9 launch vehicle from the Air Force Western Test Range (AFWTR). Payload-class satellites include a variety of spacecraft equipped with specific instruments for various scientific and technological missions. These include communications satellites like Starlink; space stations such as the ISS; scientific satellites like the Hubble; Earth observation satellites from companies like Planet Labs, Umbra, and HawkEye 360; GPS; miniature CubeSats for education and research; and military/defense satellites.

Loading next visibility...
Identifier
64528, 2025-135A
Orbit
SSO
Country
Flag of SBSB / SLB
Related business
Manufacturer
GAF
Mission
Operational Amateur Technology
Bus & Motor
CUBESAT 2U, Unknown motor
Mass
2 kg wet, 2 kg dry
Launch date (UTC)
2025-06-23 (5 months ago)
Launch vehicle
FALCON 9
Launch site
Air Force Western Test Range (AFWTR)
Object type
Payload
Rocket body
Debris
Shape & HBR
Box + 1 Rod, 1.5 m
Radar Cross Section
0.035 m², Small (<0.1 m²)

Expand to show TLE details & history
Last TLE update: 13 hours ago

TLE from 13 hours ago
0 GOOD ANCESTOR KILAKILA
1 64528U 25135A   25311.86803147  .00014863  00000-0  70567-3 0  9990
2 64528  97.4499  64.1060 0004769 231.6677 128.4129 15.19332314 21220
Epoch: 2025-11-07T20:49Z
TLE epoch observation values (Epoch: 2025-11-07T20:49:57.919Z)
Latitude
-0.00003°
Longitude
64.30885°
Altitude
512.987 km
Speed
7.606 km/s
True Right ascension
04h 16m 25s
True Declination
0° 00' 00"
Sunlit
Object was in full shadow at epoch
Visualization orbit readout
Latitude
Unknown
Longitude
Unknown
Altitude
Unknown
Speed
Unknown
Apparent Right ascension
Unknown
Apparent Declination
Unknown
Sunlit
N/A
Visualization observer readout
Local Sidereal Time
06:17:06
Azimuth
Unknown
Elevation
Unknown
Doppler factor
Unknown
Orbital elements
Apogee altitude
508.108 km
Perigee altitude
501.543 km
Semi-major axis
6,882.963 km
Eccentricity
0.00048
Inclination
97.4499°
RAAN
64.106°
Arg. of periapsis
231.6677°
True anomaly
128.4557°
Mean anomaly
128.4129°
Eccentric anomaly
128.4343°
Mean motion
3.80084 °/min
Orbital period
94.72 mins
BSTAR
0.00070567
Loading maneuver chart data...
Computing Atmospheric mass density...
Loading historical data...
Loading historical data...
Loading historical data...
Loading historical data...
Loading historical data...
Loading historical data...
Loading historical data...

Documentation

Showing up to 5 results
|